Terminal Aerodrome Forecast
Issued by NWS Knoxville/Tri Cities, TN

Home | Current Version | Previous Version | Text Only | Print | Product List | Glossary On
Versions: 1 2 3 4 5 6 7 8 9 10 11 12 13 14 15 16 17 18 19 20 21 22 23 24 25 26 27 28
000
FTUS44 KMRX 181123
TAFTRI
TAF
KTRI 181123Z 1812/1912 00000KT 1/4SM FG OVC003
     FM181500 00000KT 4SM BR OVC005
     FM181800 VRB03KT P6SM SCT005 OVC010
     FM190200 00000KT P6SM BKN020=

USA.gov is the U.S. government's official web portal to all federal, state and local government web resources and services.